Location: Ferchesar
(52.6477°N, 12.4298°E)
Time: 10:15:13
(UTC+01:00)

Transit 2A - Pass Details

Date: 08 December 2021
Orbit: 591 x 966 km, 66.7° (Epoch: 26 January)

Event Time Altitude Azimuth Distance (km) Brightness Sun altitude
Exits shadow 06:05:56 15° 329° (NNW) 2,335 8.1 -17.3°
Maximum altitude 06:10:50 42° 35° (NE) 1,351 7.4 -16.6°
Drops below altitude 10° 06:16:47 10° 105° (ESE) 2,664 10.2 -15.8°
Sets 06:19:26 0° 112° (ESE) 3,572 11.3 -15.4°
